DELTA 1 DEB, 18470

Orbit data source: Space-Track

DELTA 1 DEB, 18470 is space debris in SSO originally from a launch on Tue, 06 Nov 1973 UTC launched from the Air Force Western Test Range (AFWTR). Debris objects in space refer to the collection of defunct objects orbiting the Earth. Examples of debris include non-operational satellites, rocket bodies, and fragments generated from explosions, collisions, or faulty payload assembly.

Loading next visibility...
Identifier
18470, 1973-086GU
Orbit
SSO
Country
Flag of USUS
Related business
Manufacturer
Unknown
Mission
Spacecraft
Bus & Motor
Unknown
Mass
Unknown
Launch date (UTC)
1973-11-06 (52 years ago)
Launch vehicle
Unknown
Launch site
Air Force Western Test Range (AFWTR)
Object type
Payload
Rocket body
Debris
Shape & HBR
Unknown shape, 0.1 m
Radar Cross Section
Small (<0.1 m²)

Expand to show TLE details & history
Last TLE update: 19 hours ago

TLE from 19 hours ago
0 DELTA 1 DEB
1 18470U 73086GU  25292.26624530  .00000180  00000-0  23784-2 0  9997
2 18470 101.7541 103.2550 0180624 157.5436  20.9138 12.06641355790348
Epoch: 2025-10-19T06:23Z
TLE epoch observation values (Epoch: 2025-10-19T06:23:23.593Z)
Latitude
0.67168°
Longitude
159.5604°
Altitude
1,518.537 km
Speed
7.166 km/s
True Right ascension
18h 53m 34s
True Declination
0° 40' 05"
Sunlit
Object was in daylight at epoch
Visualization orbit readout
Latitude
Unknown
Longitude
Unknown
Altitude
Unknown
Speed
Unknown
Apparent Right ascension
Unknown
Apparent Declination
Unknown
Sunlit
N/A
Visualization observer readout
Local Sidereal Time
20:11:55
Azimuth
Unknown
Elevation
Unknown
Doppler factor
Unknown
Orbital elements
Apogee altitude
1,793.852 km
Perigee altitude
1,503.878 km
Semi-major axis
8,027.002 km
Eccentricity
0.01806
Inclination
101.7541°
RAAN
103.255°
Arg. of periapsis
157.5436°
True anomaly
21.66852°
Mean anomaly
20.9138°
Eccentric anomaly
21.28955°
Mean motion
3.01796 °/min
Orbital period
119.29 mins
BSTAR
0.0023784
Loading maneuver chart data...
Computing Atmospheric mass density...
Loading historical data...
Loading historical data...
Loading historical data...
Loading historical data...
Loading historical data...
Loading historical data...
Loading historical data...

Documentation

Showing up to 5 results
|